Regional Weather Roundup
Issued by NWS

Home | Current Version | Previous Version | Text Only | Print | Product List | Glossary On
Versions: 1 2 3 4 5 6 7 8 9 10 11 12 13 14 15 16 17 18 19 20 21 22 23 24 25 26 27 28 29 30 31 32 33 34 35 36 37 38 39 40 41 42 43 44 45 46 47 48 49 50
000
ASUS44 KLIX 130010
RWRLA
LOUISIANA WEATHER ROUNDUP
NATIONAL WEATHER SERVICE NEW ORLEANS LA
600 PM CST FRI FEB 12 2016

NOTE: "FAIR" INDICATES FEW OR NO CLOUDS BELOW 12,000 FEET WITH NO
      SIGNIFICANT WEATHER AND/OR OBSTRUCTIONS TO VISIBILITY.
      SKY/WX - SKY CONDITION AND SIGNIFICANT WEATHER.
      TMP - AIR TEMPERATURE.    DP   - DEWPOINT TEMPERATURE.
      RH  - RELATIVE HUMIDITY.  PRES - PRESSURE.
      HX  - HEAT INDEX.         WCI  - WIND CHILL INDEX.

*  THESE STATIONS ARE NOT NWS OR FAA STATIONS AND ARE NOT UNDER
   NWS QUALITY CONTROL.

LAZ040-048-061>063-065-066-069-130100-
SOUTHEAST LOUISIANA

CITY           SKY/WX    TMP DP  RH WIND       PRES   REMARKS
N.O. AUDUBON     N/A     72  55  55 MISG        N/A
6HR MIN TEMP:  75; 6HR MAX TEMP:  76;

N.O. INTL ARPT PTCLDY    68  51  54 W8        30.20R
6HR MIN TEMP:  68; 6HR MAX TEMP:  77;

N.O. LAKEFRONT CLEAR     61  54  77 W7        30.20S
6HR MIN TEMP:  61; 6HR MAX TEMP:  67;

N.O. DOWNTOWN* NOT AVBL
RESERVE*       FAIR      72  52  49 NW6       30.20S
6HR MIN TEMP:  72; 6HR MAX TEMP:  78;

SLIDELL        PTCLDY    69  55  60 CALM      30.19R
6HR MIN TEMP:  69; 6HR MAX TEMP:  75;

BATON ROUGE    CLEAR     67  53  61 NW3       30.21R
6HR MIN TEMP:  67; 6HR MAX TEMP:  75;

BOOTHVILLE     CLEAR     64  59  83 SW10      30.22R
6HR MIN TEMP:  64; 6HR MAX TEMP:  71;

BELLE CHASSE   PTCLDY    69  53  56 W3        30.20R
6HR MIN TEMP:  69; 6HR MAX TEMP:  76;

BOGALUSA*        N/A     67  51  55 NW5       30.21R
6HR MIN TEMP:  67; 6HR MAX TEMP:  78;

GALLIANO*      CLEAR     68  59  71 W8        30.21S
6HR MIN TEMP:  68; 6HR MAX TEMP:  76;

NEW ROADS*     MOCLDY    68  55  62 N5        30.21R
6HR MIN TEMP:  68; 6HR MAX TEMP:  74;

GONZALES*      FAIR      69  54  57 NW3       30.20R
6HR MIN TEMP:  69; 6HR MAX TEMP:  75;

HAMMOND*       PTCLDY    70  50  49 W3        30.19R
HOUMA*         CLEAR     64  59  82 SW7       30.22R
PORT FOURCHON* CLEAR     64  59  82 SW9       30.23S

$$

LAZ041-044-053-054-130100-
SOUTHWEST LOUISIANA

CITY           SKY/WX    TMP DP  RH WIND       PRES   REMARKS
LAKE CHARLES   CLEAR     68  59  73 SW7       30.21R
6HR MIN TEMP:  68; 6HR MAX TEMP:  78;

LAFAYETTE      CLEAR     71  56  58 W5        30.21R
6HR MIN TEMP:  70; 6HR MAX TEMP:  76;

PATTERSON      CLEAR     64  55  72 W10       30.22R
6HR MIN TEMP:  64; 6HR MAX TEMP:  73;

SALT POINT       N/A     59  57  93 SW5       30.22R
6HR MIN TEMP:  59; 6HR MAX TEMP:  66;

NEW IBERIA     CLEAR     68  57  68 SW3       30.22R
6HR MIN TEMP:  68; 6HR MAX TEMP:  75;

CHENAULT AIRPK NOT AVBL

$$

LAZ027-028-130100-
CENTRAL LOUISIANA

CITY           SKY/WX    TMP DP  RH WIND       PRES   REMARKS
FORT POLK      CLEAR     69  55  60 N2        30.22R
6HR MIN TEMP:  69; 6HR MAX TEMP:  75;

ALEXANDRIA INT CLEAR     69  46  43 N6        30.21R
6HR MIN TEMP:  69; 6HR MAX TEMP:  74;

ALEXANDRIA     CLEAR     69  42  37 NE7       30.23R
6HR MIN TEMP:  69; 6HR MAX TEMP:  78;


$$

LAZ001-002-130100-
NORTHWEST LOUISIANA

CITY           SKY/WX    TMP DP  RH WIND       PRES   REMARKS
SHREVEPORT     PTCLDY    64  37  36 N6        30.27R
6HR MIN TEMP:  63; 6HR MAX TEMP:  71;

BARKSDALE AFB  CLEAR     63  34  34 N5        30.26R
6HR MIN TEMP:  60; 6HR MAX TEMP:  70;

DTN SHREVEPORT CLEAR     65  35  33 N3        30.27R
6HR MIN TEMP:  59; 6HR MAX TEMP:  70;


$$

LAZ014-016-130100-
NORTHEAST LOUISIANA

CITY           SKY/WX    TMP DP  RH WIND       PRES   REMARKS
MONROE         CLEAR     59  37  44 N9        30.27R
6HR MIN TEMP:  59; 6HR MAX TEMP:  70;

TALLULAH       CLEAR     60  37  42 N9        30.27R
6HR MIN TEMP:  59; 6HR MAX TEMP:  67;


$$




USA.gov is the U.S. government's official web portal to all federal, state and local government web resources and services.